Location: Unspecified
(47.6567°N, 0.0000°E)
Time: 02:57:08
(UTC+00:00)

N. Korean satellite - Visible Passes

Search period start: 23 October 2019 00:00
Search period end: 02 November 2019 00:00
Orbit: 455 x 508 km, 97.2° (Epoch: 22 October)

Date Brightness Start Highest point End Pass type
(mag) Time Alt. Az. Time Alt. Az. Time Alt. Az.
23 Oct 9.7 05:06:48 10° NE 05:09:28 19° E 05:12:09 10° SE visible
24 Oct 10.6 04:43:39 10° E 04:43:55 10° E 04:44:12 10° E visible
25 Oct 7.4 05:48:49 10° NNE 05:52:26 59° E 05:56:04 10° S visible
25 Oct 9.9 18:02:04 10° SW 18:04:22 17° W 18:06:42 10° NW visible
26 Oct 8.9 05:23:47 10° NNE 05:27:02 29° E 05:30:18 10° SSE visible
26 Oct 8.6 17:35:46 10° SSW 17:38:53 32° W 17:42:04 10° NNW visible
27 Oct 10.0 04:59:12 10° NE 05:01:33 16° E 05:03:54 10° SE visible
28 Oct 6.6 06:06:12 10° N 06:09:53 84° WNW 06:13:35 10° SSW visible
28 Oct 10.4 18:21:07 10° WSW 18:21:57 11° W 18:22:49 10° WNW visible
29 Oct 7.8 05:40:58 10° NNE 05:44:33 47° E 05:48:08 10° S visible
29 Oct 9.6 17:53:44 10° SW 17:56:24 20° W 17:59:06 10° NW visible
30 Oct 9.2 05:16:01 10° NE 05:19:07 25° E 05:22:12 10° SSE visible
30 Oct 8.1 17:27:38 10° S 17:30:55 40° W 17:34:17 10° NNW visible
31 Oct 10.2 04:51:42 10° ENE 04:53:35 13° E 04:55:28 10° ESE visible
01 Nov 6.8 05:58:15 10° NNE 06:01:59 79° ESE 06:05:42 10° S visible
01 Nov 10.1 18:12:10 10° WSW 18:13:56 13° W 18:15:44 10° WNW visible
